{"data":{"norad_id":66334,"epoch":"2026-09-20T04:33:15.736608Z","epoch_age_seconds":123461,"freshness":"FRESH","line1":"1 66334U 25253R   26263.18976547  .00016219  00000+0  59706-3 0  9993","line2":"2 66334  43.0013 193.8262 0001549 246.0358 114.0331 15.27610607 49992","mean_motion":15.27610607,"eccentricity":0.0001549,"inclination_deg":43.0013,"raan_deg":193.8262,"arg_perigee_deg":246.0358,"mean_anomaly_deg":114.0331,"bstar":0.00059706,"rev_number":4999,"period_min":94.264859997794,"perigee_km":481.89466567088,"apogee_km":484.02023273124,"semimajor_km":6861.0944492011,"source":"CELESTRAK","updated_at":"2026-09-21T09:00:35.875928Z"}}